Home > Weather > Bridgetown > Past weeks

Flag for Barbados Weather for the Past 2 Weeks in Bridgetown, Barbados

Now
82 °F

Broken clouds.


Feels Like: 88 °F
Forecast: N/A
Wind: 16 mph from East

Location: Grantley Adams

Current Time: Apr 30, 2016 at 5:37:06 PM

Latest Report: Apr 30, 2016 at 5:00 PM


Visibility: N/A

Pressure: 29.86 "Hg

Humidity: 74%

Dew Point: 73 °F

Location of BridgetownLocation

Historic Weather in Bridgetown — Graph

°F

Bridgetown Temperature Yesterday

Maximum temperature yesterday: 88 °F (at 11:00 AM)
Minimum temperature yesterday: 81 °F (at 12:00 AM)
Average temperature yesterday: 83 °F

High & Low Weather Summary for the Past Weeks

 TemperatureHumidityPressure
High88 °F (Apr 17, 12:00 PM)94% (Apr 16, 5:00 AM)30.01 "Hg (Apr 16, 5:00 AM)
Low79 °F (Apr 15, 8:00 PM)59% (Apr 24, 2:00 PM)29.80 "Hg (Apr 25, 5:00 PM)
Average83 °F78%29.91 "Hg
* Reported Apr 15 4:00 PM — Apr 30 4:00 PM, Bridgetown, Weather by CustomWeather, © 2016

Note: Actual official high and low records may vary slightly from our data, if they occured in-between our weather recording intervals... More about our weather records

Advertising

Bridgetown Weather History for the Previous 24 Hours

Scroll right to see more
 ConditionsComfort  
Time TempWeatherWind HumidityBarometerVisibility
4:00 PM
Sat, Apr 30
82 °FPartly sunny.16 mph74%29.86 "HgN/A
3:00 PM84 °FPartly sunny.14 mph70%29.89 "HgN/A
2:00 PM84 °FPartly sunny.17 mph70%29.89 "HgN/A
1:00 PM84 °FBroken clouds.18 mph70%29.92 "HgN/A
12:00 PM86 °FBroken clouds.21 mph66%29.92 "HgN/A
11:00 AM84 °FMore clouds than sun.22 mph70%29.95 "HgN/A
10:00 AM84 °FPartly sunny.21 mph70%29.95 "HgN/A
9:00 AM82 °FBroken clouds.21 mph79%29.95 "HgN/A
8:00 AM84 °FOvercast.17 mph70%29.95 "HgN/A
7:00 AM81 °FBroken clouds.21 mph74%29.92 "HgN/A
6:00 AM81 °FPartly sunny.21 mph79%29.89 "HgN/A
5:00 AM81 °FPassing clouds.18 mph79%29.92 "HgN/A
4:00 AM81 °FPartly cloudy.17 mph79%29.89 "HgN/A
3:00 AM81 °FPassing clouds.17 mph79%29.89 "HgN/A
2:00 AM81 °FPassing clouds.18 mph74%29.92 "HgN/A
1:00 AM81 °FPassing clouds.20 mph79%29.92 "HgN/A
12:00 AM81 °FPartly cloudy.18 mph79%29.95 "HgN/A
11:00 PM
Fri, Apr 29
81 °FPartly cloudy.20 mph79%29.98 "HgN/A
10:00 PM81 °FPassing clouds.18 mph74%29.98 "HgN/A
9:00 PM81 °FPassing clouds.18 mph79%29.95 "HgN/A
8:00 PM81 °FPartly cloudy.17 mph74%29.95 "HgN/A
7:00 PM81 °FPartly cloudy.17 mph79%29.92 "HgN/A
6:00 PM82 °FBroken clouds.14 mph74%29.89 "HgN/A
5:00 PM82 °FPartly sunny.16 mph70%29.86 "HgN/A
Weather by CustomWeather, © 2016

See weather overviewHow to use our weather pages